Perryton, TX

1:52 PM CDT on July 27, 2017 (GMT -0500)
Perryton Ochiltree County

Weather History for KPYX - February, 2014

Change the Weather History Date:

Saturday, February 8, 2014

  Actual Average Record
Temperature  
Mean Temperature 19 °F -  
Max Temperature 33 °F 46 °F 73 °F (2015)
Min Temperature 5 °F 17 °F -1 °F (1982)
Degree Days  
Heating Degree Days 46    
Moisture  
Dew Point 18 °F    
Average Humidity 88    
Maximum Humidity 95    
Minimum Humidity 72    
Precipitation  
Precipitation 0.03 in - - ()
Sea Level Pressure  
Sea Level Pressure 29.93 in    
Wind  
Wind Speed 5 mph (SSE)    
Max Wind Speed 16 mph    
Max Gust Speed -    
Visibility 6 miles    
Events      
Averages and records for this station are not official NWS values.
T = Trace of Precipitation, MM = Missing Value Source: NWS Daily Summary

Daily Weather History Graph

Daily Weather History Graph

Search for Another Location

Airport or City:

Trip Planner

Search our weather history database for the weather conditions in past years. The results will help you decide how hot, cold, wet, or windy it might be!

Date:

Astronomy

Feb. 08, 2014 Rise Set
Actual Time 7:38 AM CST 6:16 PM CST
Civil Twilight 7:11 AM CST 6:43 PM CST
Nautical Twilight 6:40 AM CST 7:13 PM CST
Astronomical Twilight 6:10 AM CST 7:44 PM CST
Moon 1:14 PM CST (2/8) 2:49 AM CST (2/8)
Length of Visible Light 11h 32m
Length of Day
10h 38m
Waxing Gibbous, 69% of the Moon is Illuminated
Feb 8
Waxing Gibbous
Feb 14
Full
Feb 22
Last Quarter
Mar 1
New
Mar 8
First Quarter

Hourly Weather History & Observations

Time (CST) Temp. Windchill Dew Point Humidity Pressure Visibility Wind Dir Wind Speed Gust Speed Precip Events Conditions
12:15 AM 20.1 °F 5.9 °F 18.9 °F 95% 29.94 in 4.0 mi SSE 16.1 mph - N/A   Overcast
12:35 AM 19.4 °F 6.0 °F 18.0 °F 94% 29.93 in 7.0 mi SSE 13.8 mph - N/A   Overcast
12:55 AM 17.6 °F 6.4 °F 15.8 °F 93% 29.94 in 10.0 mi SSE 9.2 mph - N/A   Scattered Clouds
1:15 AM 16.3 °F 6.7 °F 14.5 °F 93% 29.94 in 10.0 mi SSE 6.9 mph - N/A   Clear
1:35 AM 14.9 °F 6.1 °F 13.1 °F 93% 29.94 in 7.0 mi SE 5.8 mph - N/A   Clear
1:55 AM 14.4 °F - 12.2 °F 91% 29.94 in 7.0 mi Calm Calm - N/A   Clear
2:15 AM 14.5 °F - 12.6 °F 92% 29.94 in 7.0 mi Calm Calm - N/A   Clear
2:35 AM 13.6 °F - 11.5 °F 91% 29.94 in 5.0 mi Calm Calm - N/A   Clear
2:55 AM 10.9 °F - 8.4 °F 90% 29.94 in 1.5 mi Calm Calm - N/A   Unknown
3:15 AM 11.8 °F - 9.5 °F 90% 29.94 in 0.5 mi Calm Calm - N/A   Unknown
3:35 AM 9.9 °F - 7.0 °F 88% 29.93 in 0.2 mi Calm Calm - N/A   Overcast
3:55 AM 11.7 °F - 9.1 °F 90% 29.93 in 0.2 mi Calm Calm - N/A   Overcast
4:15 AM 9.1 °F 2.6 °F 5.9 °F 87% 29.93 in 0.2 mi SE 3.5 mph - N/A   Mostly Cloudy
4:35 AM 6.4 °F -0.5 °F 3.4 °F 87% 29.93 in 0.2 mi South 3.5 mph - N/A   Unknown
4:55 AM 5.9 °F - 2.8 °F 87% 29.94 in 0.2 mi Calm Calm - N/A   Overcast
5:15 AM 6.6 °F -2.2 °F 3.7 °F 88% 29.94 in 0.2 mi SW 4.6 mph - N/A   Overcast
5:35 AM 7.9 °F 1.2 °F 5.2 °F 89% 29.94 in 2.0 mi West 3.5 mph - N/A   Overcast
5:55 AM 8.6 °F 2.0 °F 5.9 °F 89% 29.94 in 0.2 mi West 3.5 mph - N/A   Overcast
6:15 AM 8.6 °F - 5.9 °F 89% 29.93 in 0.2 mi Calm Calm - N/A   Overcast
6:35 AM 8.6 °F - 5.9 °F 89% 29.94 in 0.2 mi Calm Calm - N/A   Overcast
6:55 AM 8.6 °F - 5.9 °F 89% 29.93 in 0.2 mi Calm Calm - N/A   Overcast
7:15 AM 8.6 °F - 5.7 °F 88% 29.94 in 0.2 mi Calm Calm - N/A   Overcast
7:35 AM 8.6 °F - 5.9 °F 89% 29.94 in 0.2 mi Calm Calm - N/A   Overcast
7:55 AM 9.3 °F - 6.6 °F 89% 29.94 in 0.5 mi Calm Calm - N/A   Mostly Cloudy
8:15 AM 10.4 °F - 7.7 °F 89% 29.96 in 5.0 mi Calm Calm - N/A   Clear
8:35 AM 11.1 °F - 8.4 °F 89% 29.96 in 5.0 mi Calm Calm - N/A   Clear
8:55 AM 11.1 °F - 8.4 °F 89% 29.95 in 7.0 mi Calm Calm - N/A   Clear
9:15 AM 11.3 °F - 8.6 °F 89% 29.96 in 7.0 mi Calm Calm - N/A   Clear
9:35 AM 12.2 °F - 9.5 °F 89% 29.96 in 7.0 mi Calm Calm - N/A   Clear
9:55 AM 14.4 °F - 11.8 °F 90% 29.97 in 7.0 mi Calm Calm - N/A   Clear
10:15 AM 17.4 °F - 15.8 °F 93% 29.97 in 7.0 mi Calm Calm - N/A   Clear
10:35 AM 21.4 °F 11.1 °F 20.1 °F 95% 29.98 in 10.0 mi North 9.2 mph - N/A   Clear
10:55 AM 22.5 °F - 21.2 °F 95% 29.96 in 10.0 mi Calm Calm - N/A   Clear
11:15 AM 23.4 °F 18.9 °F 22.1 °F 95% 29.96 in 10.0 mi NW 3.5 mph - N/A   Clear
11:35 AM 24.4 °F - 23.0 °F 94% 29.96 in 10.0 mi Calm Calm - N/A   Clear
11:55 AM 25.3 °F 19.7 °F 23.7 °F 94% 29.96 in 10.0 mi NE 4.6 mph - N/A   Clear
12:15 PM 27.0 °F 19.5 °F 25.3 °F 94% 29.96 in 10.0 mi North 6.9 mph - 0.03 in   Clear
12:35 PM 28.0 °F - 22.8 °F 81% 29.96 in 10.0 mi Calm Calm - 0.03 in   Clear
12:55 PM 29.3 °F - 22.6 °F 76% 29.93 in 10.0 mi Calm Calm - 0.03 in   Clear
1:15 PM 30.4 °F - 23.4 °F 75% 29.92 in 10.0 mi Calm Calm - N/A   Clear
1:35 PM 31.6 °F - 23.5 °F 72% 29.92 in 10.0 mi Calm Calm - N/A   Clear
1:55 PM 31.6 °F 27.0 °F 25.0 °F 76% 29.89 in 10.0 mi SSE 4.6 mph - N/A   Clear
2:15 PM 32.9 °F 26.7 °F 25.5 °F 74% 29.89 in 10.0 mi SSE 6.9 mph - N/A   Clear
2:35 PM 33.1 °F 26.1 °F 27.3 °F 79% 29.89 in 10.0 mi SSE 8.1 mph - N/A   Clear
2:55 PM 33.8 °F 27.0 °F 27.9 °F 79% 29.88 in 10.0 mi SE 8.1 mph - N/A   Clear
3:15 PM 32.9 °F 25.3 °F 27.1 °F 79% 29.88 in 10.0 mi South 9.2 mph - N/A   Clear
3:35 PM 32.2 °F 25.0 °F 26.8 °F 80% 29.89 in 10.0 mi South 8.1 mph - N/A   Clear
3:55 PM 32.4 °F 25.3 °F 26.6 °F 79% 29.88 in 10.0 mi SSE 8.1 mph - N/A   Clear
4:15 PM 32.4 °F 25.3 °F 26.8 °F 80% 29.89 in 10.0 mi South 8.1 mph - N/A   Clear
4:35 PM 33.4 °F 28.1 °F 27.3 °F 78% 29.89 in 10.0 mi South 5.8 mph - N/A   Clear
4:55 PM 33.8 °F 28.6 °F 27.7 °F 78% 29.90 in 10.0 mi South 5.8 mph - N/A   Clear
5:15 PM 33.4 °F 28.1 °F 28.4 °F 82% 29.89 in 10.0 mi SSE 5.8 mph - N/A   Clear
5:35 PM 32.7 °F 28.3 °F 28.2 °F 83% 29.90 in 10.0 mi SSE 4.6 mph - N/A   Clear
5:55 PM 33.3 °F - 28.4 °F 82% 29.91 in 10.0 mi Calm Calm - N/A   Clear
6:15 PM 32.0 °F 27.5 °F 28.0 °F 85% 29.91 in 10.0 mi SE 4.6 mph - N/A   Clear
6:35 PM 31.5 °F 25.8 °F 27.3 °F 85% 29.92 in 10.0 mi SE 5.8 mph - N/A   Clear
6:55 PM 30.0 °F 24.1 °F 26.6 °F 87% 29.93 in 10.0 mi SE 5.8 mph - N/A   Clear
7:15 PM 29.3 °F 21.5 °F 26.4 °F 89% 29.94 in 10.0 mi SE 8.1 mph - N/A   Clear
7:35 PM 28.2 °F 19.5 °F 25.3 °F 89% 29.93 in 10.0 mi SSE 9.2 mph - N/A   Clear
7:55 PM 27.7 °F 18.8 °F 25.3 °F 91% 29.93 in 7.0 mi SSE 9.2 mph - N/A   Clear
8:15 PM 26.6 °F 19.1 °F 24.4 °F 92% 29.93 in 7.0 mi South 6.9 mph - N/A   Clear
8:35 PM 27.3 °F 19.9 °F 25.2 °F 92% 29.93 in 7.0 mi South 6.9 mph - N/A   Clear
8:55 PM 27.9 °F 19.8 °F 25.7 °F 92% 29.93 in 7.0 mi South 8.1 mph - N/A   Clear
9:15 PM 27.1 °F 19.7 °F 24.8 °F 91% 29.93 in 7.0 mi SSE 6.9 mph - N/A   Clear
9:35 PM 25.3 °F 16.7 °F 23.4 °F 92% 29.94 in 7.0 mi SSE 8.1 mph - N/A   Clear
9:55 PM 26.6 °F 20.0 °F 25.2 °F 94% 29.94 in 7.0 mi SSE 5.8 mph - N/A   Clear
10:15 PM 25.7 °F 18.0 °F 24.3 °F 94% 29.94 in 5.0 mi South 6.9 mph - N/A   Clear
10:35 PM 25.7 °F 19.0 °F 24.1 °F 94% 29.96 in 7.0 mi ENE 5.8 mph - N/A   Clear
10:55 PM 25.5 °F 16.9 °F 23.7 °F 93% 29.96 in 5.0 mi ENE 8.1 mph - N/A   Clear
11:15 PM 23.7 °F 15.6 °F 22.3 °F 94% 29.96 in 5.0 mi NE 6.9 mph - N/A   Clear
11:35 PM 23.4 °F 15.2 °F 21.9 °F 94% 29.96 in 5.0 mi ENE 6.9 mph - N/A   Clear
11:55 PM 22.6 °F 14.3 °F 21.2 °F 94% 29.95 in 5.0 mi ENE 6.9 mph - N/A   Clear